Location: Camp at the Woods
(43.2055°N, 93.0905°W)
Time: 09:03:12
(UTC+00:00)

CZ-4C R/B - Pass Details

Date: 05 December 2023
Orbit: 536 x 1459 km, 63.4° (Epoch: 29 February)

Event Time Altitude Azimuth Distance (km) Brightness Sun altitude
Exits shadow 12:05:49 - 332° (NNW) 3,053 4.7 -14.6°
Reaches altitude 10° 12:06:20 10° 334° (NNW) 2,891 4.6 -14.5°
Maximum altitude 12:12:58 41° 43° (NE) 1,712 4.0 -13.3°
Drops below altitude 10° 12:20:51 10° 111° (ESE) 3,448 6.9 -12.0°
Sets 12:24:11 0° 119° (ESE) 4,493 8.0 -11.4°
